User: anonymous   Login
Location: Kalberh�ni
(46.4610°N, 7.2453°E)
Time: 21:40:39
(UTC+00:00)
Language:

FENGYUN 1C DEB - Orbit

View from above orbital plane
View from above orbital plane
View from above satellite
View from above satellite

Ground track
Ground track

The orbit data is extracted from the following two-line orbital elements,

1 35134U 99025DLN 22021.54348142  .00003009  00000-0  79060-3 0  9996
2 35134  98.8759 275.2201 0064849  66.1665 294.6307 14.48694378689675
Epoch (UTC): 21 January 2022 13:02:36
Eccentricity: 0.0064849
inclination: 98.8759°
perigee height: 684 km
apogee height: 776 km
right ascension of ascending node: 275.2201°
argument of perigee: 66.1665°
revolutions per day: 14.48694378
mean anomaly at epoch: 294.6307°
orbit number at epoch: 68967

The dashed part of the orbit path shows where the satellite is in the earth's shadow,  

DLR